Simultaneous Nadir Overpasses (SNOs) Predictions

Prediction of SNOs between NOAA-20 and AQUA Satellite Orbit:

Table of predicted SNOs for the next 14.0 days since TLE Epoch: 8/24/2018
Index Date (NOAA-20) Time (NOAA-20) Lat,Lon (NOAA-20) SZA (NOAA-20 ) Date (AQUA) Time (AQUA) Lat,Lon (AQUA) SZA (AQUA ) Distance(km) Time Diff (sec)
1 08/24/2018 23:03:13 76.49, 74.75 86.12 08/24/2018 23:03:23 76.49, 74.68 86.13 1.94 10
2 08/24/2018 23:53:43 -77.19,-115.15 94.77 08/24/2018 23:52:35 -77.19,-115.15 94.71 0.32 68
3 08/27/2018 14:29:46 -75.53, 19.92 91.85 08/27/2018 14:30:43 -75.54, 20.00 91.92 2.42 57
4 08/27/2018 15:20:04 76.71,-168.66 86.72 08/27/2018 15:19:45 76.71,-168.68 86.74 0.63 19
5 08/30/2018 06:46:26 -76.26, 138.12 91.84 08/30/2018 06:46:55 -76.25, 138.04 91.85 2.49 29
6 08/30/2018 07:36:54 76.97, -51.87 87.29 08/30/2018 07:36:06 76.97, -51.85 87.32 0.39 48
7 09/01/2018 22:15:44 66.62, 67.84 99.57 09/01/2018 22:16:57 66.47, 68.89 99.32 49.74 73
8 09/01/2018 23:03:15 -76.57,-104.99 91.32 09/01/2018 23:03:15 -76.56,-105.05 91.30 1.79 0
9 09/01/2018 23:51:29 81.20, 103.58 80.33 09/01/2018 23:50:16 81.62, 102.83 80.56 48.41 73
10 09/04/2018 14:29:37 75.96,-158.69 90.33 09/04/2018 14:30:26 75.95,-158.77 90.31 2.35 49
11 09/04/2018 15:20:03 -76.87, 11.95 90.78 09/04/2018 15:19:34 -76.86, 11.90 90.74 1.36 29
12 09/07/2018 06:46:25 76.31, -41.69 90.83 09/07/2018 06:46:45 76.31, -41.76 90.83 1.89 20




NCC Satellite Simultaneous Nadir Overpasses (SNOs) Prediction Service
